Starlink 11236

operational
NORAD ID: 61062 Int'l Des: 2024-164 Owner: SPXS Country: US Constellation: starlink
LEOCIRCULAR

About Starlink 11236

Description loading...

Live Position

Loading 3D Globe...

Upcoming Passes

Altitude History

Altitude vs Time

uPlot chart will show altitude changes over time

Two-Line Element Set

1 61062U 24164N 25258.82670108 .00009611 00000-0 83988-4 0 9993
2 61062 53.1575 93.3527 0000862 77.1066 283.0048 15.69741490 57952
Epoch: Sep 15, 2025 • Age: 23 hours

Current Status

Altitude 363.6 km
Velocity 7.69 km/s
Sub-Earth Point -14.45°S, 161.36°E
Launch Date Sep 13, 2024
Age 1 years
Type internet

Technical Details

Classification Payload
Mass 960.00 kg
Dry Mass 910.00 kg
Total Mass 960.00 kg
Length 0.30 m
Diameter 4.10 m
Span 29.00 m
Shape Box + pan
Manufacturer SPXS
Bus Type Starlink V2MD
Phase Status In Orbit
Owner/State SPXS/US

Large Constellations

Loading constellations...